BREEZE-KM R/B, 43754

Orbit data source: Space-Track

BREEZE-KM R/B, 43754 is space debris in LEO originally from a launch on Fri, 30 Nov 2018 UTC launched from the Plesetsk Missile And Space Complex (PKMTR). Debris objects in space refer to the collection of defunct objects orbiting the Earth. Examples of debris include non-operational satellites, rocket bodies, and fragments generated from explosions, collisions, or faulty payload assembly.

Loading next visibility...
Identifier
43754, 2018-097D
Orbit
LEO
Country
Flag of CISCIS
Related business
Manufacturer
Khrunichev
Mission
Spacecraft
Bus & Motor
BRIZ, S5.92
Mass
2,370 kg wet, 2,370 kg dry
Launch date (UTC)
2018-11-30 (7 years ago)
Launch vehicle
Unknown
Launch site
Plesetsk Missile And Space Complex (PKMTR)
Object type
Payload
Rocket body
Debris
Shape & HBR
Hex Cyl + 1 Rod, 2.0 m
Radar Cross Section
10.190 m², Large (>1 m²)

Expand to show TLE details & history
Last TLE update: 5 hours ago

TLE from 5 hours ago
0 BREEZE-KM R/B
1 43754U 18097D   26035.81751980 -.00000003  00000-0 -48266-4 0  9998
2 43754  82.5149 186.9929 0221344 255.0368 102.6135 12.80113780335485
Epoch: 2026-02-04T19:37Z
TLE epoch observation values (Epoch: 2026-02-04T19:37:13.710Z)
Latitude
-0.00009°
Longitude
117.70711°
Altitude
1,384.659 km
Speed
7.148 km/s
True Right ascension
12h 27m 58s
True Declination
0° 00' 00"
Sunlit
Object was in full shadow at epoch
Visualization orbit readout
Latitude
Unknown
Longitude
Unknown
Altitude
Unknown
Speed
Unknown
Apparent Right ascension
Unknown
Apparent Declination
Unknown
Sunlit
N/A
Visualization observer readout
Local Sidereal Time
02:17:47
Azimuth
Unknown
Elevation
Unknown
Doppler factor
Unknown
Orbital elements
Apogee altitude
1,509.107 km
Perigee altitude
1,167.51 km
Semi-major axis
7,716.446 km
Eccentricity
0.02213
Inclination
82.5149°
RAAN
186.9929°
Arg. of periapsis
255.0368°
True anomaly
105.07308°
Mean anomaly
102.6135°
Eccentric anomaly
103.84486°
Mean motion
3.20197 °/min
Orbital period
112.43 mins
BSTAR
-0.000048266
Loading maneuver chart data...
Computing Atmospheric mass density...
Loading historical data...
Loading historical data...
Loading historical data...
Loading historical data...
Loading historical data...
Loading historical data...
Loading historical data...
Other satellites on launch #97 in the year 2018 (2018-11-30 UTC)

Documentation

Showing up to 5 results
|